Location: Whitehorse
(60.7170°N, 135.0500°W)
Time: 18:00:27
(UTC-08:00)

Envisat - Pass Details

Date: 30 October 2019
Orbit: 764 x 766 km, 98.1° (Epoch: 19 November)

Event Time Altitude Azimuth Distance (km) Brightness Sun altitude
Rises 21:03:24 0° 203° (SSW) 3,227 6.4 -21.9°
Reaches altitude 10° 21:06:06 10° 217° (SW) 2,305 5.8 -22.2°
Maximum altitude 21:10:14 25° 271° (W) 1,529 5.3 -22.7°
Drops below altitude 10° 21:14:24 10° 326° (NW) 2,317 6.1 -23.2°
Sets 21:17:08 0° 340° (NNW) 3,248 6.7 -23.5°
